Regional Weather Roundup
Issued by NWS

Home | Current Version | Previous Version | Graphics & Text | Print | Product List | Glossary On
Versions: 1 2 3 4 5 6 7 8 9 10 11 12 13 14 15 16 17 18 19 20 21 22 23 24 25 26 27 28 29 30 31 32 33 34 35 36 37 38 39 40 41 42 43 44 45 46 47 48 49 50
000
ASUS43 KMKX 060711
RWRWI

WISCONSIN REGIONAL WEATHER ROUNDUP
NATIONAL WEATHER SERVICE MILWAUKEE/SULLIVAN WI
200 AM CDT WED MAY 06 2015

NOTE: "FAIR" INDICATES FEW OR NO CLOUDS BELOW 12,000 FEET WITH NO
SIGNIFICANT WEATHER AND/OR OBSTRUCTIONS TO VISIBILITY.

WIZ001-002-006>008-014>016-023>028-060800-
NORTHWEST WISCONSIN

CITY           SKY/WX    TMP DP  RH WIND       PRES   REMARKS
SUPERIOR ARPT  MOCLDY    42  34  73 NE3       30.16F
ASHLAND        PTCLDY    40  32  73 CALM      30.18F
HAYWARD        CLOUDY    56  29  35 SE5       30.17F
SIREN          LGT RAIN  58  48  69 S10       30.14S
CUMBERLAND     CLOUDY    52  46  82 SE12      30.16S
RICE LAKE      RAIN      52  46  80 E9G16     30.18S
CHETEK         RAIN      50  48  91 E8        30.17F
LADYSMITH      CLOUDY    56  36  46 SE14      30.20S
EAU CLAIRE     CLOUDY    52  48  86 E7        30.16F
MENOMONIE      CLOUDY    54  50  86 E6        30.16F
NEW RICHMOND   CLOUDY    53  52  96 SE9       30.14F
OSCEOLA        CLOUDY    55  54  97 SE8       30.16F
$$

WIZ003>005-009-010-017-018-060800-
NORTH CENTRAL WISCONSIN

CITY           SKY/WX    TMP DP  RH WIND       PRES   REMARKS
MANITOWISH WTR PTCLDY    50  29  43 SE6       30.20F
ARBOR VITAE    PTCLDY    52  30  42 SE3       30.21F
WOODRUFF       PTCLDY    52  30  42 SE3       30.21F
RHINELANDER    MOCLDY    49  28  44 SE5       30.22F
EAGLE RIVER    PTCLDY    39  29  68 CALM      30.22F
LAND O LAKES   PTCLDY    37  33  85 CALM      30.23F
PHILLIPS       CLOUDY    54  26  35 SE7       30.19F
TOMAHAWK       CLOUDY    51  26  36 SE5       30.21F
MEDFORD        CLOUDY    51  39  63 SE8       30.20F
MERRILL        CLOUDY    54  29  39 S8        30.22F
$$

WIZ029-030-035-036-043>047-060800-
CENTRAL WISCONSIN

CITY           SKY/WX    TMP DP  RH WIND       PRES   REMARKS
WAUSAU         LGT RAIN  50  39  66 E7        30.21F
MOSINEE        CLOUDY    50  37  62 E5        30.23F
MARSHFIELD     LGT RAIN  52  45  77 E9        30.21F
STEVENS POINT  CLOUDY    51  44  77 CALM      30.23S
WAUPACA        LGT RAIN  54  45  72 E6        30.23S
WAUTOMA        CLOUDY    51  51 100 CALM      30.22F
WISC RAPIDS    LGT RAIN  51  46  83 E5        30.22F
CAMP DOUGLAS   CLOUDY    51  51 100 SE3       30.18F
$$

WIZ011>013-019>022-031-037>040-048>050-060800-
NORTHEAST WISCONSIN

CITY           SKY/WX    TMP DP  RH WIND       PRES   REMARKS
ANTIGO         CLOUDY    50  32  49 SE3       30.24S
SHAWANO        CLOUDY    55  37  50 CALM      30.24F
OCONTO         CLOUDY    47  42  82 CALM      30.23F
STURGEON BAY   CLOUDY    50  28  43 E6        30.26F
GREEN BAY      CLOUDY    53  41  63 CALM      30.23F
MANITOWOC      CLOUDY    49  40  71 CALM      30.24F
APPLETON       LGT RAIN  52  34  50 SE6       30.23F
CLINTONVILLE   CLOUDY    54  34  47 E3        30.23F
OSHKOSH        CLOUDY    51  43  74 E3        30.22F
$$

WIZ032>034-041-042-053>061-060800-
SOUTHWEST WISCONSIN

CITY           SKY/WX    TMP DP  RH WIND       PRES   REMARKS
LA CROSSE      CLOUDY    56  52  86 E6        30.15F
SPARTA         CLOUDY    53  51  92 CALM      30.18S
VIROQUA        CLOUDY    52  52 100 E9        30.16F
BOSCOBEL       CLOUDY    55  52  89 NE3       30.17F FOG
PRAIRIE DU CHI CLOUDY    55  52  90 E7        30.15F
PLATTEVILLE    CLOUDY    51  51  97 E9        30.17S
$$

WIZ056-057-062-063-064-067-068-060800-
SOUTH CENTRAL WISCONSIN

CITY           SKY/WX    TMP DP  RH WIND       PRES   REMARKS
REEDSBURG      CLOUDY    51  50  95 E5        30.18F FOG
BARABOO/DELLS  NOT AVBL
LONE ROCK      CLOUDY    53  50  89 E10       30.17F
MINERAL POINT  FOG       52  50  93 E7        30.17F VSB 3/4
MADISON        CLOUDY    51  49  92 SE12      30.19F FOG
MIDDLETON      CLOUDY    53  51  95 SE9       30.19F
WATERTOWN      CLOUDY    49  49 100 CALM      30.21F
MONROE         FOG       50  50 100 E7        30.18F VSB 1/4
JANESVILLE     CLOUDY    50  50 100 E9        30.19F FOG
$$

WIZ051-052-058>065-066-070>072-060800-
SOUTHEAST WISCONSIN

CITY           SKY/WX    TMP DP  RH WIND       PRES   REMARKS
MILWAUKEE      CLOUDY    46  35  65 CALM      30.23F
WAUKESHA       MOCLDY    43  37  81 CALM      30.23S
MILWAUKEE/TIMM MOCLDY    45  36  70 CALM      30.23F
RACINE         CLOUDY    46  37  71 NE3       30.24S
BURLINGTON     CLOUDY    46  42  85 E5        30.22S
KENOSHA        CLOUDY    48  41  76 NE3       30.22F
FOND DU LAC    LGT RAIN  50  45  83 N5        30.22F
SHEBOYGAN      LGT RAIN  47  42  83 CALM      30.23F
WEST BEND      CLOUDY    45  39  81 CALM      30.22F
JUNEAU         CLOUDY    49  47  92 E3        30.22F
$$

LSZ147-162-060800-
LAKE SUPERIOR

STATION/POSITION TIME  TEMP    WIND        PRES    WAVE
                       AIR SEA DIR/SP/G            HT/PER
                 (UTC) (F)     (DEG/KT/KT) (MB)    (FT/S)
W MID LAKE BUOY  0650   43 35  180/  6/  6 1023.1F   1
DEVILS ISLAND    0700   44      50/  4/  5 1022.5F
PORT WING        0600   41     120/  3/  5 1022.0F
SAXON HARBOR     0600   49      CALM  /  6 1021.7S
$$

LMZ867-665-643>646-060800-
LAKE MICHIGAN

STATION/POSITION TIME  TEMP    WIND        PRES    WAVE
                       AIR SEA DIR/SP/G            HT/PER
                 (UTC) (F)     (DEG/KT/KT) (MB)    (FT/S)
CHAMBERS ISLAND  0600   45      90/  2/  2 1024.4F
NORTHPORT PIER   0600   49      CALM  /  2 1024.4F
KEWAUNEE LAKESHO 0618   47      CALM  /  3 1023.5F
SHEBOYGAN LAKESH 0700   47      20/  4/  5 1024.3F
PORT WASHINGTON  0600   47     340/  1/  3 1024.4
ATWATER BUOY     0600   44      10/  2/  4 1024.8F
MILWAUKEE LAKESH 0600   47      40/  8/  9   N/A
KENOSHA   LAKESH 0700   45      10/  7/  8 1023.0F
$$

TC  - TEMPERATURE IN CELSIUS
VSB - VISIBILITY IN STATUTE MILES
WCI - WIND CHILL INDEX
HX  - HEAT INDEX




USA.gov is the U.S. government's official web portal to all federal, state and local government web resources and services.